Find Starlink 11566

NORAD ID: 62914 Int'l Des: 2025-027 Owner: SPXS Country: US Constellation: starlink operational
LEOCIRCULAR

当前视图

正在加载3D地球...

About Starlink 11566

Starlink 11566 (NORAD 62914) is a starlink constellation satellite (v2 mini d2c) launched Feb 8, 2025 by SPXS of US. It operates in LEO, CIRCULAR orbit with a mass of 960.00 kg.

关于 Starlink 11566

正在加载描述...

即将过境

Passes for default location (London). Set your location on the main map for personalized predictions.

高度历史

Loading altitude history...

两行轨道根数

1 62914U 25027H 26170.51454967 .00181813 00000-0 13867-2 0 9994
2 62914 42.9994 94.1589 0000480 353.1744 6.9117 15.70889565 79202
Epoch: Jun 19, 2026 • Age: 12 hours

当前状态

高度 355.6 km
速度 7.70 km/s
星下点 26.17°N, 156.48°W
发射日期 Feb 8, 2025
运行时间 1.3 years
类型 internet

技术详情

分类 Payload
质量 960.00 kg
干质量 910.00 kg
总质量 960.00 kg
长度 0.30 m
直径 4.10 m
跨度 29.00 m
形状 Box + pan
制造商 SPXS
平台类型 Starlink V2MD
阶段状态 In Orbit
所有者/国家 SPXS/US

Most Searched